Regional Weather Roundup
Issued by NWS Sterling, VA

Home | Current Version | Previous Version | Graphics & Text | Print | Product List | Glossary On
Versions: 1 2 3 4 5 6 7 8 9 10 11 12 13 14 15 16 17 18 19 20 21 22 23 24 25 26 27 28 29 30 31 32 33 34 35 36 37 38 39 40 41 42 43 44 45 46 47 48 49 50
000
ASUS41 KLWX 041810
RWRLWX

REGIONAL WEATHER ROUNDUP
NATIONAL WEATHER SERVICE BALTIMORE MD/WASHINGTON DC
200 PM EDT TUE AUG 04 2015

Note: "FAIR" indicates few or no clouds below 12,000 feet
with no significant weather and/or obstructions to visibility.
 TC=TEMPERATURE CELSIUS

 * =Non NWS site. Station does not report precipitation (e.g. rain,
    snow, etc.), thunder, or fog.

DCZ001-MDZ009-015-VAZ040>042-051-053>054-041900-
WASHINGTON METRO

CITY           SKY/WX    TMP DP  RH WIND       PRES   REMARKS
WASHINGTON NAT MOSUNNY   93  63  36 W8G21     29.91F HX  94
DULLES         PTSUNNY   87  64  46 W5        29.92F
ANDREWS AFB    MOSUNNY   90  67  46 SW10      29.92S HX  93
FT BELVOIR     MOSUNNY   91  65  41 NW7       29.92S HX  93
QUANTICO       MOSUNNY   93  64  38 NW8       29.92F HX  94
COLLEGE PARK*  MOSUNNY   90  61  37 CALM      29.91S
LEESBURG*      PTSUNNY   88  68  51 CALM      29.93F HX  91
MANASSAS*      MOSUNNY   90  64  43 W7        29.93S HX  91
GAITHERSBURG*  MOSUNNY   88  66  48 W7        29.97S HX  90

$$

MDZ006>007-011-014-041900-
BALTIMORE METRO

CITY           SKY/WX    TMP DP  RH WIND       PRES   REMARKS
BWI AIRPORT    MOSUNNY   88  65  46 W14G20    29.91S HX  90
MD SCIENCE CTR   N/A     90  63  40 MISG      29.91S HX  91
MARTIN STATE   PTSUNNY   90  66  45 W12G20    29.92S HX  92
ANNAPOLIS      PTSUNNY   89  65  44 W6        29.90F HX  91
FORT MEADE*    PTSUNNY   88  66  48 W5        29.93F HX  90

$$

MDZ012-015-019>023-041900-
MARYLAND EASTERN SHORE

CITY           SKY/WX    TMP DP  RH WIND       PRES   REMARKS
OCEAN CITY     SUNNY     93  68  43 SW15      29.91S HX  97
SALISBURY      SUNNY     90  70  51 W14       29.91F HX  95
BAY BRIDGE AP*   N/A     90  63  40 SW6       29.91S HX  90
CAMBRIDGE*     SUNNY     90  68  48 W6        29.91S HX  93
EASTON*        MOSUNNY   90  72  55 W8        29.95S HX  96

$$

MDZ017>025-041900-
SOUTHERN MARYLAND

CITY           SKY/WX    TMP DP  RH WIND       PRES   REMARKS
PATUXENT RIVER MOSUNNY   91  69  48 SW10      29.91F HX  96
ST INIGOES     NOT AVBL
LEONARDTOWN*   SUNNY     90  64  43 SW8       29.94S HX  91

$$

MDZ003>005-041900-
NORTH CENTRAL MARYLAND

CITY           SKY/WX    TMP DP  RH WIND       PRES   REMARKS
FREDERICK*     SUNNY     90  66  45 W16       29.95F HX  92
HAGERSTOWN APT MOSUNNY   88  57  34 W12G23    29.94F
WESTMINSTER*   MOSUNNY   86  63  45 NW13G20   29.94F

$$

MDZ501>502-041900-
WESTERN MARYLAND

CITY           SKY/WX    TMP DP  RH WIND       PRES   REMARKS
OAKLAND*       MOSUNNY   73  64  73 W7        30.07S
CUMBERLAND*    MOSUNNY   88  54  31 W8G22     29.99S

$$

VAZ025>031-041900-
SHENANDOAH VALLEY

CITY           SKY/WX    TMP DP  RH WIND       PRES   REMARKS
WINCHESTER*    MOSUNNY   90  63  40 W9        29.94F HX  90
FRONT ROYAL*   FAIR      86  64  48 SW6       29.93F
LURAY*         FAIR      91  63  38 SW9       29.95F HX  92
NEW MARKET*    FAIR      86  67  52 CALM      29.93F
STAUNTON*      PTSUNNY   90  62  38 S6        30.00F HX  90
WAYNESBORO*    FAIR      85  65  51 W8        30.01S

$$

WVZ021-048>050-054>055-041900-
EASTERN WEST VIRGINIA PANHANDLE

CITY           SKY/WX    TMP DP  RH WIND       PRES   REMARKS
MARTINSBURG    MOSUNNY   88  62  41 W9G18     29.94F
PETERSBURG*    SUNNY     87  63  44 W8        29.96F

$$

VAZ036>039-050-041900-
CENTRAL FOOTHILLS

CITY           SKY/WX    TMP DP  RH WIND       PRES   REMARKS
CHARLOTTESVILL SUNNY     89  63  41 SW6       29.95F HX  90
CULPEPER*      MOSUNNY   86  65  49 SW6       29.94F
ORANGE*        MOSUNNY   90  66  45 CALM      29.96S HX  92
GORDONSVILLE*  FAIR      88  66  48 W3        29.94F HX  90
WARRENTON*     FAIR      92  67  44 SW7       29.93F HX  95

$$

VAZ055>057-041900-
NORTH AND CENTRAL PIEDMONT

CITY           SKY/WX    TMP DP  RH WIND       PRES   REMARKS
FREDERICKSBRG* SUNNY     93  67  42 SW6       29.91F HX  96
STAFFORD*      SUNNY     92  61  35 W6        29.97S HX  91

$$

NCZ024-NYZ072-PAZ021-071-VAZ022-071-041900-
OTHER REGIONAL OBSERVATIONS

CITY           SKY/WX    TMP DP  RH WIND       PRES   REMARKS
NEW YORK CITY  SUNNY     88  61  40 W8        29.87S
PHILADELPHIA   MOSUNNY   90  61  37 W18G24    29.89S HX  90
PITTSBURGH     MOSUNNY   79  52  38 W6        29.98F
ROANOKE        MOSUNNY   90  64  42 W6        30.00F HX  91
RICHMOND       MOSUNNY   94  72  48 SW15      29.93F HX 102
RALEIGH        MOSUNNY   91  70  49 SE8       29.97F HX  96

$$

ANZ530>537-041900-
MARINE OBSERVATIONS

STATION/POSITION TIME  TEMP    WIND        PRES
                       AIR SEA DIR/SP/G
                 (UTC) (F)     (DEG/KT/KT) (MB)
THOMAS PT LIGHT  NOT AVBL
BALT KEY BRIDGE  1700   85     260/ 14/ 17 1012.6F
COVE POINT       1700   86     290/  6/ 11 1013.7F
LEWISETTA        1700   87 85  270/ 11/ 13 1013.0F
SOLOMONS ISLAND  1700      83                N/A
PINEY POINT      1700          340/  5/  6   N/A

$$



USA.gov is the U.S. government's official web portal to all federal, state and local government web resources and services.